Location: Unspecified
(48.7670°N, 0.0000°E)
Time: 05:25:44
(UTC+00:00)

Tiros 1 despin weight - All Passes

Search period start: 19 June 2019 00:00
Search period end: 29 June 2019 00:00
Orbit: 595 x 642 km, 48.2° (Epoch: 18 June)

Date Brightness Start Highest point End Pass type
(mag) Time Alt. Az. Time Alt. Az. Time Alt. Az.
19 Jun - 00:37:35 10° SW 00:41:35 34° SSE 00:45:34 10° E visible
19 Jun - 02:18:24 10° WSW 02:22:49 76° S 02:27:15 10° E visible
19 Jun - 03:59:55 10° W 04:04:20 77° S 04:08:47 10° ESE daylight
19 Jun - 05:41:34 10° W 05:45:36 35° SSW 05:49:40 10° SE daylight
19 Jun - 23:14:26 10° S 23:17:10 16° SE 23:19:55 10° ESE visible
20 Jun - 00:53:45 10° SW 00:58:02 50° SSE 01:02:19 10° E visible
20 Jun - 02:35:01 10° W 02:39:27 84° S 02:43:53 10° E visible
20 Jun - 04:16:34 10° W 04:20:56 62° SSW 04:25:18 10° ESE daylight
20 Jun - 05:58:30 10° W 06:01:58 23° SW 06:05:26 10° SSE daylight
20 Jun - 23:29:45 10° SSW 23:33:28 26° SSE 23:37:11 10° E visible
21 Jun - 01:10:11 10° WSW 01:14:35 68° SSE 01:18:59 10° E visible
21 Jun - 02:51:39 10° W 02:56:06 83° S 03:00:31 10° E visible
21 Jun - 04:33:14 10° W 04:37:27 44° SSW 04:41:40 10° SE daylight
21 Jun - 06:16:04 10° WSW 06:18:13 13° SW 06:20:22 10° SSW daylight
21 Jun - 22:07:36 10° SSE 22:09:09 12° SE 22:10:43 10° ESE visible
21 Jun - 23:45:42 10° SW 23:49:52 40° SSE 23:54:01 10° E visible
22 Jun - 01:26:45 10° W 01:31:12 81° S 01:35:37 10° E visible
22 Jun - 03:08:18 10° W 03:12:42 72° SSW 03:17:07 10° ESE visible
22 Jun - 04:50:02 10° W 04:53:52 29° SSW 04:57:43 10° SSE daylight
22 Jun - 22:22:06 10° S 22:25:23 20° SE 22:28:39 10° E visible
23 Jun - 00:01:59 10° WSW 00:06:22 58° SSE 00:10:43 10° E visible
23 Jun - 01:43:23 10° W 01:47:49 85° S 01:52:16 10° E visible
23 Jun - 03:24:57 10° W 03:29:16 54° SSW 03:33:35 10° ESE daylight
23 Jun - 05:07:09 10° W 05:10:11 18° SW 05:13:14 10° S daylight
23 Jun - 22:37:45 10° SSW 22:41:44 32° SSE 22:45:41 10° E visible
24 Jun - 00:18:30 10° WSW 00:22:57 74° SSE 00:27:22 10° E visible
24 Jun - 02:00:02 10° W 02:04:28 79° S 02:08:53 10° ESE visible
24 Jun - 03:41:40 10° W 03:45:45 37° SSW 03:49:50 10° SE daylight
24 Jun - 05:25:56 10° SW 05:26:23 10° SW 05:26:50 10° SW daylight
24 Jun - 21:14:46 10° S 21:17:21 15° SE 21:19:54 10° ESE visible
24 Jun - 22:53:53 10° SW 22:58:10 48° SSE 23:02:26 10° E visible
25 Jun - 00:35:07 10° W 00:39:34 84° S 00:44:00 10° E visible
25 Jun - 02:16:40 10° W 02:21:04 65° SSW 02:25:26 10° ESE visible
25 Jun - 03:58:34 10° W 04:02:08 24° SW 04:05:41 10° SSE daylight
25 Jun - 21:29:57 10° SSW 21:33:37 25° SE 21:37:16 10° E visible
25 Jun - 23:10:17 10° WSW 23:14:42 65° SSE 23:19:06 10° E visible
26 Jun - 00:51:45 10° W 00:56:13 83° S 01:00:38 10° E visible
26 Jun - 02:33:20 10° W 02:37:36 47° SSW 02:41:50 10° SE visible
26 Jun - 04:15:59 10° WSW 04:18:23 14° SW 04:20:49 10° S daylight
26 Jun - 20:08:15 10° SSE 20:09:20 11° SE 20:10:24 10° ESE daylight
26 Jun - 21:45:50 10° SW 21:50:00 38° SSE 21:54:08 10° E visible
26 Jun - 23:26:51 10° WSW 23:31:18 79° S 23:35:44 10° E visible
27 Jun - 01:08:24 10° W 01:12:49 74° SSW 01:17:14 10° ESE visible
27 Jun - 02:50:07 10° W 02:54:01 31° SSW 02:57:55 10° SSE visible
27 Jun - 20:22:21 10° S 20:25:33 19° SE 20:28:42 10° E daylight
27 Jun - 22:02:05 10° WSW 22:06:29 55° SSE 22:10:50 10° E visible
27 Jun - 23:43:28 10° W 23:47:57 85° S 23:52:23 10° E visible
28 Jun - 01:25:03 10° W 01:29:24 57° SSW 01:33:44 10° ESE visible
28 Jun - 03:07:10 10° W 03:10:21 20° SW 03:13:32 10° S visible
28 Jun - 20:37:55 10° SSW 20:41:52 30° SSE 20:45:47 10° E daylight
28 Jun - 22:18:35 10° WSW 22:23:03 72° SSE 22:27:30 10° E visible
